AirNav   ProFlight Series 2 Aviation Headset
 
 1241 users online  

MU66 Winfield Manor Heliport
Winfield, Missouri, USA

GOING TO WINFIELD?


FAA INFORMATION EFFECTIVE 16 JULY 2020

Location

FAA Identifier: MU66
Lat/Long: 39-01-47.4300N 090-49-23.7500W
39-01.790500N 090-49.395833W
39.0298417,-90.8232639
(estimated)
Elevation: 732 ft. / 223 m (estimated)
Variation: 01E (2000)
From city: 3 miles SE of WINFIELD, MO
Time zone: UTC -5 (UTC -6 during Standard Time)
Zip code: 63389

Heliport Operations

Heliport use: Private use. Permission required prior to landing
Activation date: 10/1986
Control tower: no
ARTCC: KANSAS CITY CENTER
FSS: SAINT LOUIS FLIGHT SERVICE STATION
NOTAMs facility: FDC (NOTAM-D service not available)
Attendance: UNATNDD
Wind indicator: yes
Segmented circle: no
Lights: FOR FLOOD LGTS CALL 314-553-2225.
Beacon: white-green-yellow (heliport)
FOR ROTG BCN CALL 314-731-4517.

Heliport Communications

WX ASOS at SET (19 nm E): 118.075 (636-250-4590)

Nearby radio navigation aids

VOR radial/distance  VOR name  Freq  Var
STLr302/18.9ST LOUIS VORTAC117.4001E
FTZr014/21.3FORISTELL VORTAC110.8005E

 
NDB name  Hdg/Dist  Freq  Var  ID
CIVIC MEMORIAL284/36.726301WCVM -.-. ...- --

Heliport Services

Runway Information

Helipad H1

Dimensions: 50 x 50 ft. / 15 x 15 m
Surface: concrete
Runway edge lights: FLD
Latitude: 39-01.790500N
Longitude: 090-49.395833W
Elevation: 732.0 ft.
Traffic pattern: leftleft

Heliport Ownership and Management from official FAA records

Ownership: Privately-owned
Owner: EMERSON ELECTRIC CO.
8000 W. FLORISSANT
ST LOUIS, MO 63136
Phone (314) 553-2225
Manager: MOLLY LINDSAY
RR 1, BOX 128
WINFIELD, MO 63389
Phone (314) 553-3900

Additional Remarks

A52-H1 TREES 80' WEST AND WIRES 400' NORTH.
FOR CD CTC ST LOUIS APCH AT 314-890-1018.

Instrument Procedures

There are no published instrument procedures at MU66.

Some nearby airports with instrument procedures:

KSET - St Charles County Smartt Airport (19 nm E)
1H0 - Creve Coeur Airport (23 nm SE)
KSUS - Spirit of St Louis Airport (23 nm S)
KSTL - St Louis Lambert International Airport (27 nm SE)
H19 - Bowling Green Municipal Airport (27 nm NW)
 
Loc | Ops | Rwys | IFR | FBO | Links
Com | Nav | Svcs | Stats | Notes
Area around MU66 (Winfield Manor Heliport)
 
Road maps at: MapQuest Bing Google
 
Aerial photo
No photo
 
Sectional chart

 
Airport distance calculator
Flying to Winfield Manor Heliport? Find the distance to fly.

From to MU66

Sunrise and sunset
Times for 03-Aug-2020
 Local
(UTC-5)
 Zulu
(UTC)
Morning civil twilight05:3810:38
Sunrise06:0811:08
Sunset20:1101:11
Evening civil twilight20:4101:41

Current date and time
Zulu (UTC)  03-Aug-2020 22:14:21
Local (UTC-5)  03-Aug-2020 17:14:21
 
METAR
KSET 
19nm E 
032154Z AUTO 35011KT 10SM FEW025 SCT070 OVC085 23/17 A3001 RMK AO2 SLP159 T02330172
KSUS 
24nm S 
032154Z 02008KT 10SM FEW029 OVC055 23/17 A3001 RMK AO2 SLP157 T02280172
KSTL 
27nm SE 
032151Z 35008KT 10SM -RA FEW024 BKN060 BKN150 23/18 A3002 RMK AO2 RAB48 SLP157 P0000 T02280178
KFYG 
28nm S 
032155Z AUTO 36006KT 10SM FEW028 SCT033 23/18 A3001 RMK AO2
KPPQ 
36nm N 
032155Z AUTO 35006KT 10SM SCT025 BKN044 OVC060 21/18 A3005 RMK AO2 T02130175
KALN 
38nm E 
032150Z 35006KT 10SM SCT029 BKN060 22/19 A3001
TAF
KSUS 
24nm S 
031912Z 0319/0418 35009KT P6SM BKN035 FM032300 35008KT P6SM SCT045 FM041000 VRB04KT P6SM BKN025 FM041500 35007KT P6SM SCT022
KSTL 
27nm SE 
032001Z 0320/0424 34014KT P6SM VCSH OVC022 FM032200 35009KT P6SM OVC035 FM041000 35005KT P6SM BKN022 FM041600 36008KT P6SM SCT080
NOTAMs
Click for the latest NOTAMs
NOTAMs are issued by the DoD/FAA and will open in a separate window not controlled by AirNav.

 

 
 

Would you like to see your business listed on this page?

 If your business provides an interesting product or service to pilots, flight crews, aircraft, or users of the Winfield Manor Heliport, you should consider listing it here.  To start the listing process, click on the button below
 
Add a business
 

Other Pages about Winfield Manor Heliport

Update a link
 
Copyright © AirNav, LLC. All rights reserved. Privacy Policy  Contact